Flag Weather past 2 weeks in May Pen, Jamaica

Now
81 °F

Thundershowers. Passing clouds.


Feels Like: 85 °F
Forecast: 73 / 87 °F
Wind: 7 mph from Northwest

Location: Kingston / Norman Manley

Current Time: Nov 27, 2014 at 12:49:00 AM

Latest Report: Nov 27, 2014 at 12:00 AM


Visibility: N/A

Pressure: 29.98 "Hg

Humidity: 79%

Dew point: 73 °F

Location of May PenLocation

Historic Weather in May Pen — Graph

°F

May Pen temperature yesterday

Maximum temperature yesterday: 86 °F (at 9:00 AM)
Minimum temperature yesterday: 77 °F (at 1:00 PM)
Average temperature yesterday: 81 °F

Past Weeks' High & Low Weather Summary

 TemperatureHumidityPressure
High91 °F (Nov 18, 2:00 PM)100% (Nov 26, 1:00 PM)30.04 "Hg (Nov 26, 1:00 PM)
Low77 °F (Nov 22, 7:00 AM)55% (Nov 21, 10:00 AM)29.83 "Hg (Nov 12, 2:00 PM)
Average83 °F74%29.93 "Hg
* Reported Midnight between Nov 11 and Nov 12 — Midnight between Nov 26 and Nov 27, May Pen, Weather by CustomWeather, © 2014

Note: Actual official high and low records may vary slightly from our data, if they occured in-between our weather recording intervals... More about our weather records

Advertising

May Pen weather history for previous 24 hours

 ConditionsComfort  
Time TempWeatherWind HumidityBarometerVisibility
12:00 AM
Nov 27
81 °FThundershowers. Passing clouds.7 mph79%29.98 "HgN/A
11:00 PM
Nov 26
81 °FThundershowers. Passing clouds.6 mph79%29.98 "HgN/A
10:00 PM81 °FPassing clouds.7 mph79%29.98 "HgN/A
9:00 PM79 °FPassing clouds.10 mph89%29.98 "HgN/A
8:00 PM79 °FPassing clouds.8 mph89%29.98 "HgN/A
7:00 PM79 °FPassing clouds.6 mph89%29.95 "HgN/A
6:00 PM81 °FPassing clouds.6 mph84%29.98 "HgN/A
5:00 PM82 °FScattered clouds.8 mph74%29.95 "HgN/A
4:00 PM81 °FBroken clouds.9 mph79%29.95 "HgN/A
3:00 PM81 °FPartly sunny.6 mph79%29.95 "HgN/A
2:00 PM79 °FScattered showers. Partly sunny.3 mph84%29.95 "HgN/A
1:00 PM77 °FThunderstorms. Broken clouds.20 mph100%29.98 "HgN/A
12:00 PM84 °FScattered showers. Broken clouds.17 mph74%29.98 "HgN/A
11:00 AM82 °FSprinkles. Broken clouds.21 mph79%29.98 "HgN/A
10:00 AM84 °FStrong thunderstorms. Broken clouds.20 mph74%29.98 "HgN/A
9:00 AM86 °FPassing clouds.5 mph70%30.01 "HgN/A
8:00 AM84 °FPassing clouds.14 mph70%29.98 "HgN/A
7:00 AM81 °FPassing clouds.6 mph74%29.95 "HgN/A
6:00 AM82 °FPassing clouds.6 mph70%29.92 "HgN/A
5:00 AM81 °FPassing clouds.8 mph74%29.92 "HgN/A
4:00 AM82 °FPassing clouds.16 mph79%29.89 "HgN/A
3:00 AM82 °FPassing clouds.17 mph74%29.89 "HgN/A
2:00 AM82 °FPassing clouds.17 mph74%29.89 "HgN/A
1:00 AM82 °FPassing clouds.16 mph79%29.92 "HgN/A
12:00 AM82 °FPassing clouds.14 mph79%29.95 "HgN/A
Weather by CustomWeather, © 2014

See weather overviewHow to use our weather pages